Find Starlink 32493

NORAD ID: 62025 Int'l Des: 2024-213 Owner: SPXS Country: US Constellation: starlink operational
LEOCIRCULAR

現在のビュー

3D地球を読み込み中...

About Starlink 32493

Starlink 32493 (NORAD 62025) is a starlink constellation satellite (v2 mini) launched Nov 18, 2024 by SPXS of US. It operates in LEO, CIRCULAR orbit with a mass of 730.00 kg.

Starlink 32493について

説明を読み込み中...

次回通過

Passes for default location (London). Set your location on the main map for personalized predictions.

高度履歴

Loading altitude history...

軌道要素

1 62025U 24213T 26166.45120230 .00034303 00000-0 10208-2 0 9991
2 62025 53.1610 73.2498 0001447 70.4932 289.6226 15.34429071 88138
Epoch: Jun 15, 2026 • Age: 10 hours

現在のステータス

高度 473.4 km
速度 7.63 km/s
衛星直下点 -32.15°S, 57.46°E
打ち上げ日 Nov 18, 2024
運用期間 1.5 years
タイプ internet

技術仕様

分類 Payload
質量 730.00 kg
乾燥質量 700.00 kg
総質量 730.00 kg
長さ 0.30 m
直径 4.10 m
スパン 29.00 m
形状 Box + pan
製造者 SPXS
バスタイプ Starlink V2M
フェーズステータス In Orbit
所有者/国 SPXS/US

Most Searched